,,Stat5,,Stat1,,Stat2,,Stat3,,Stat4,,Wind1,,Wind1,
time,status,PA1M_AVG,status,PR1M_SUM,status,RH1M_AVG,status,SR1M_AVG,status,TA1M_AVG,status,W1dAve1m,status,W1sAve1m,
2000-11-19, 00:00:01,VALID,915.531,VALID,0,VALID,99.8235,VALID,0,VALID,20.2743,VALID,199,VALID,0.651843,
2000-11-19, 00:01:00,VALID,915.516,VALID,0,VALID,99.8159,VALID,-0.0169808,VALID,20.284,VALID,188,VALID,0.651884,
2000-11-19, 00:02:00,VALID,915.5,VALID,0,VALID,99.8184,VALID,0.0169808,VALID,20.2835,VALID,192,VALID,0.231841,
2000-11-19, 00:03:00,VALID,915.471,VALID,0,VALID,99.8362,VALID,0.0849042,VALID,20.2922,VALID,210,VALID,0.0310497,
2000-11-19, 00:04:00,VALID,915.439,VALID,0,VALID,99.84,VALID,0.118866,VALID,20.2982,VALID,204,VALID,0.274414,
2000-11-19, 00:05:00,VALID,915.417,VALID,0,VALID,99.8337,VALID,0.118866,VALID,20.3086,VALID,203,VALID,0.00229779,
2000-11-19, 00:06:00,VALID,915.4,VALID,0,VALID,99.8311,VALID,0.101885,VALID,20.2982,VALID,204,VALID,0.00108507,
2000-11-19, 00:07:00,VALID,915.371,VALID,0,VALID,99.8426,VALID,0.101885,VALID,20.3046,VALID,206,VALID,0,
2000-11-19, 00:08:00,VALID,915.346,VALID,0,VALID,99.8477,VALID,0.101885,VALID,20.3243,VALID,205,VALID,0,
2000-11-19, 00:09:00,VALID,915.314,VALID,0,VALID,99.8515,VALID,0.101885,VALID,20.3342,VALID,136,VALID,0.410256,
2000-11-19, 00:10:00,VALID,915.282,VALID,0,VALID,99.8413,VALID,0.0849042,VALID,20.3538,VALID,138,VALID,0.512587,
2000-11-19, 00:11:00,VALID,915.241,VALID,0,VALID,99.8527,VALID,0.101885,VALID,20.3568,VALID,144,VALID,0.258224,
2000-11-19, 00:12:00,VALID,915.21,VALID,0,VALID,99.8337,VALID,0.0849042,VALID,20.3538,VALID,147,VALID,0,
2000-11-19, 00:13:00,VALID,915.186,VALID,0,VALID,99.821,VALID,0.0849042,VALID,20.3277,VALID,167,VALID,0,
2000-11-19, 00:14:00,VALID,915.151,VALID,0.2,VALID,99.8019,VALID,0.101885,VALID,20.3081,VALID,164,VALID,0,
2000-11-19, 00:15:00,VALID,915.109,VALID,0,VALID,99.8146,VALID,0.101885,VALID,20.3019,VALID,178,VALID,0,
2000-11-19, 00:16:00,VALID,915.077,VALID,0,VALID,99.8159,VALID,0.0849042,VALID,20.2855,VALID,184,VALID,0,
2000-11-19, 00:17:00,VALID,915.065,VALID,0,VALID,99.8197,VALID,0.101885,VALID,20.3024,VALID,196,VALID,0,
2000-11-19, 00:18:00,VALID,915.043,VALID,0,VALID,99.8248,VALID,0.0169808,VALID,20.297,VALID,197,VALID,0,
2000-11-19, 00:19:00,VALID,915.011,VALID,0,VALID,99.8375,VALID,0,VALID,20.3107,VALID,237,VALID,0,
2000-11-19, 00:20:00,VALID,914.992,VALID,0.2,VALID,99.8311,VALID,-0.0169808,VALID,20.3072,VALID,352,VALID,0,
2000-11-19, 00:21:00,VALID,914.968,VALID,0,VALID,99.8426,VALID,-0.0339617,VALID,20.3266,VALID,8,VALID,0,
2000-11-19, 00:22:00,VALID,914.942,VALID,0,VALID,99.8324,VALID,-0.0169808,VALID,20.3131,VALID,336,VALID,0,
2000-11-19, 00:23:00,VALID,914.909,VALID,0,VALID,99.8286,VALID,-0.0169808,VALID,20.2878,VALID,328,VALID,0,
2000-11-19, 00:24:00,VALID,914.883,VALID,0,VALID,99.8324,VALID,-0.0339617,VALID,20.2977,VALID,328,VALID,0,
2000-11-19, 00:25:00,VALID,914.87,VALID,0.2,VALID,99.8438,VALID,-0.0509425,VALID,20.2977,VALID,328,VALID,0,
2000-11-19, 00:26:00,VALID,914.84,VALID,0,VALID,99.84,VALID,-0.0339617,VALID,20.291,VALID,328,VALID,0,
2000-11-19, 00:27:00,VALID,914.825,VALID,0,VALID,99.8349,VALID,-0.0169808,VALID,20.2875,VALID,328,VALID,0,
2000-11-19, 00:28:00,VALID,914.805,VALID,0,VALID,99.8413,VALID,-0.0169808,VALID,20.2972,VALID,328,VALID,0,
2000-11-19, 00:29:00,VALID,914.783,VALID,0,VALID,99.8438,VALID,-0.0509425,VALID,20.3067,VALID,327,VALID,0,
2000-11-19, 00:30:00,VALID,914.767,VALID,0.2,VALID,99.8515,VALID,0,VALID,20.3136,VALID,351,VALID,0,
2000-11-19, 00:31:00,VALID,914.742,VALID,0,VALID,99.8566,VALID,0,VALID,20.3134,VALID,107,VALID,0,
2000-11-19, 00:32:00,VALID,914.735,VALID,0,VALID,99.8515,VALID,0,VALID,20.3126,VALID,94,VALID,0,
2000-11-19, 00:33:00,VALID,914.717,VALID,0,VALID,99.8489,VALID,0,VALID,20.3228,VALID,94,VALID,0,
2000-11-19, 00:34:00,VALID,914.695,VALID,0,VALID,99.8413,VALID,0,VALID,20.3034,VALID,94,VALID,0,
2000-11-19, 00:35:00,VALID,914.671,VALID,0,VALID,99.8451,VALID,-0.0169808,VALID,20.2937,VALID,100,VALID,0,
2000-11-19, 00:36:00,VALID,914.65,VALID,0,VALID,99.8451,VALID,0,VALID,20.3002,VALID,105,VALID,0,
2000-11-19, 00:37:00,VALID,914.623,VALID,0,VALID,99.8616,VALID,-0.0169808,VALID,20.3034,VALID,110,VALID,0,
2000-11-19, 00:38:00,VALID,914.611,VALID,0,VALID,99.8616,VALID,-0.0169808,VALID,20.3096,VALID,110,VALID,0,
2000-11-19, 00:39:00,VALID,914.596,VALID,0,VALID,99.8566,VALID,0,VALID,20.3196,VALID,110,VALID,0,
2000-11-19, 00:40:00,VALID,914.578,VALID,0,VALID,99.8604,VALID,-0.0339617,VALID,20.2972,VALID,109,VALID,0,
2000-11-19, 00:41:00,VALID,914.582,VALID,0.2,VALID,99.868,VALID,-0.0339617,VALID,20.3064,VALID,109,VALID,0,
2000-11-19, 00:42:00,VALID,914.57,VALID,0,VALID,99.8591,VALID,-0.0169808,VALID,20.3196,VALID,109,VALID,0,
2000-11-19, 00:43:00,VALID,914.546,VALID,0,VALID,99.8604,VALID,0,VALID,20.3293,VALID,109,VALID,0,
2000-11-19, 00:44:00,VALID,914.533,VALID,0,VALID,99.8591,VALID,0,VALID,20.3129,VALID,109,VALID,0,
2000-11-19, 00:45:00,VALID,914.527,VALID,0,VALID,99.8604,VALID,-0.0169808,VALID,20.2937,VALID,109,VALID,0,
2000-11-19, 00:46:00,VALID,914.524,VALID,0,VALID,99.8604,VALID,-0.0169808,VALID,20.2811,VALID,109,VALID,0,
2000-11-19, 00:47:00,VALID,914.51,VALID,0,VALID,99.8655,VALID,-0.0339617,VALID,20.2716,VALID,109,VALID,0,
2000-11-19, 00:48:00,VALID,914.496,VALID,0,VALID,99.8731,VALID,0,VALID,20.2843,VALID,109,VALID,0,
2000-11-19, 00:49:00,VALID,914.495,VALID,0,VALID,99.8744,VALID,-0.0169808,VALID,20.2905,VALID,109,VALID,0,
2000-11-19, 00:50:00,VALID,914.487,VALID,0,VALID,99.8744,VALID,-0.0169808,VALID,20.3072,VALID,109,VALID,0,
2000-11-19, 00:51:00,VALID,914.48,VALID,0,VALID,99.8769,VALID,0,VALID,20.3099,VALID,109,VALID,0,
2000-11-19, 00:52:00,VALID,914.485,VALID,0,VALID,99.882,VALID,0,VALID,20.2908,VALID,109,VALID,0,
2000-11-19, 00:53:00,VALID,914.476,VALID,0,VALID,99.8985,VALID,0,VALID,20.3129,VALID,109,VALID,0,
2000-11-19, 00:54:00,VALID,914.46,VALID,0,VALID,99.8858,VALID,-0.0169808,VALID,20.333,VALID,109,VALID,0,
2000-11-19, 00:55:00,VALID,914.457,VALID,0,VALID,99.8833,VALID,-0.0509425,VALID,20.3094,VALID,109,VALID,0,
2000-11-19, 00:56:00,VALID,914.458,VALID,0,VALID,99.8884,VALID,0,VALID,20.3293,VALID,109,VALID,0,
2000-11-19, 00:57:00,VALID,914.46,VALID,0,VALID,99.8884,VALID,-0.0169808,VALID,20.3522,VALID,109,VALID,0,
2000-11-19, 00:58:00,VALID,914.455,VALID,0,VALID,99.8934,VALID,0,VALID,20.3619,VALID,109,VALID,0,
2000-11-19, 00:59:00,VALID,914.466,VALID,0,VALID,99.8985,VALID,0,VALID,20.3519,VALID,109,VALID,0,
2000-11-19, 01:00:00,VALID,914.462,VALID,0,VALID,99.8871,VALID,0,VALID,20.3425,VALID,109,VALID,0,
2000-11-19, 01:01:00,VALID,914.467,VALID,0,VALID,99.8947,VALID,-0.0169808,VALID,20.3459,VALID,109,VALID,0,
2000-11-19, 01:02:00,VALID,914.46,VALID,0,VALID,99.8934,VALID,0.0169808,VALID,20.3263,VALID,108,VALID,0,
2000-11-19, 01:03:00,VALID,914.467,VALID,0,VALID,99.8985,VALID,-0.0339617,VALID,20.3134,VALID,108,VALID,0,
2000-11-19, 01:04:00,VALID,914.474,VALID,0.2,VALID,99.8998,VALID,-0.0169808,VALID,20.297,VALID,114,VALID,0,
2000-11-19, 01:05:00,VALID,914.48,VALID,0,VALID,99.9011,VALID,-0.0339617,VALID,20.294,VALID,185,VALID,0,
2000-11-19, 01:06:00,VALID,914.493,VALID,0,VALID,99.8934,VALID,-0.0169808,VALID,20.2873,VALID,287,VALID,0,
2000-11-19, 01:07:00,VALID,914.497,VALID,0,VALID,99.9023,VALID,-0.0169808,VALID,20.288,VALID,288,VALID,0,
2000-11-19, 01:08:00,VALID,914.502,VALID,0,VALID,99.91,VALID,-0.0169808,VALID,20.297,VALID,286,VALID,0,
2000-11-19, 01:09:00,VALID,914.507,VALID,0,VALID,99.9112,VALID,0,VALID,20.3002,VALID,287,VALID,0,
2000-11-19, 01:10:00,VALID,914.513,VALID,0,VALID,99.9125,VALID,0,VALID,20.3002,VALID,286,VALID,0,
2000-11-19, 01:11:00,VALID,914.515,VALID,0,VALID,99.9125,VALID,-0.0849042,VALID,20.3136,VALID,263,VALID,0,
2000-11-19, 01:12:00,VALID,914.538,VALID,0,VALID,99.91,VALID,-0.0679233,VALID,20.3198,VALID,266,VALID,0,
2000-11-19, 01:13:00,VALID,914.552,VALID,0,VALID,99.9112,VALID,-0.0509425,VALID,20.2999,VALID,268,VALID,0,
2000-11-19, 01:14:00,VALID,914.562,VALID,0,VALID,99.9087,VALID,0,VALID,20.3164,VALID,274,VALID,0,
2000-11-19, 01:15:00,VALID,914.571,VALID,0,VALID,99.9176,VALID,-0.0169808,VALID,20.3524,VALID,272,VALID,0,
2000-11-19, 01:16:00,VALID,914.584,VALID,0,VALID,99.9151,VALID,-0.0509425,VALID,20.3489,VALID,249,VALID,0,
2000-11-19, 01:17:00,VALID,914.603,VALID,0,VALID,99.9023,VALID,-0.0339617,VALID,20.3323,VALID,238,VALID,0,
2000-11-19, 01:18:00,VALID,914.602,VALID,0,VALID,99.9011,VALID,-0.0849042,VALID,20.3233,VALID,238,VALID,0,
2000-11-19, 01:19:00,VALID,914.616,VALID,0,VALID,99.9189,VALID,-0.0679233,VALID,20.3059,VALID,236,VALID,0,
2000-11-19, 01:20:00,VALID,914.608,VALID,0,VALID,99.9189,VALID,0,VALID,20.3266,VALID,237,VALID,0,
2000-11-19, 01:21:00,VALID,914.595,VALID,0,VALID,99.9163,VALID,-0.0169808,VALID,20.3231,VALID,235,VALID,0,
2000-11-19, 01:22:00,VALID,914.6,VALID,0,VALID,99.9201,VALID,-0.0509425,VALID,20.3268,VALID,217,VALID,0,
2000-11-19, 01:23:00,VALID,914.588,VALID,0,VALID,99.9176,VALID,-0.0509425,VALID,20.3104,VALID,210,VALID,0,
2000-11-19, 01:24:00,VALID,914.579,VALID,0,VALID,99.9163,VALID,-0.0679233,VALID,20.3136,VALID,206,VALID,0,
2000-11-19, 01:25:00,VALID,914.592,VALID,0,VALID,99.9201,VALID,-0.0509425,VALID,20.3233,VALID,206,VALID,0,
2000-11-19, 01:26:00,VALID,914.585,VALID,0,VALID,99.9265,VALID,-0.0679233,VALID,20.3231,VALID,206,VALID,0,
2000-11-19, 01:27:00,VALID,914.582,VALID,0,VALID,99.9341,VALID,-0.0509425,VALID,20.3363,VALID,206,VALID,0,
2000-11-19, 01:28:00,VALID,914.575,VALID,0,VALID,99.9367,VALID,-0.0509425,VALID,20.339,VALID,206,VALID,0,
2000-11-19, 01:29:00,VALID,914.556,VALID,0,VALID,99.9316,VALID,-0.0509425,VALID,20.3454,VALID,206,VALID,0,
2000-11-19, 01:30:00,VALID,914.538,VALID,0,VALID,99.9354,VALID,-0.0509425,VALID,20.3581,VALID,206,VALID,0,
2000-11-19, 01:31:00,VALID,914.525,VALID,0,VALID,99.9379,VALID,-0.0509425,VALID,20.3783,VALID,206,VALID,0,
2000-11-19, 01:32:00,VALID,914.503,VALID,0,VALID,99.9367,VALID,-0.0339617,VALID,20.3807,VALID,204,VALID,0,
2000-11-19, 01:33:00,VALID,914.478,VALID,0,VALID,99.9468,VALID,-0.0169808,VALID,20.4036,VALID,158,VALID,0,
2000-11-19, 01:34:00,VALID,914.459,VALID,0,VALID,99.943,VALID,-0.0169808,VALID,20.4165,VALID,102,VALID,0,
2000-11-19, 01:35:00,VALID,914.427,VALID,0,VALID,99.9354,VALID,-0.0339617,VALID,20.4001,VALID,104,VALID,0,
2000-11-19, 01:36:00,VALID,914.4,VALID,0,VALID,99.9354,VALID,-0.0509425,VALID,20.3877,VALID,104,VALID,0,
2000-11-19, 01:37:00,VALID,914.386,VALID,0.2,VALID,99.9278,VALID,-0.0339617,VALID,20.3812,VALID,104,VALID,0,
2000-11-19, 01:38:00,VALID,914.359,VALID,0,VALID,99.943,VALID,-0.0169808,VALID,20.3877,VALID,104,VALID,0,
2000-11-19, 01:39:00,VALID,914.332,VALID,0,VALID,99.943,VALID,-0.0339617,VALID,20.3743,VALID,104,VALID,0,
2000-11-19, 01:40:00,VALID,914.311,VALID,0,VALID,99.9367,VALID,-0.0169808,VALID,20.3646,VALID,104,VALID,0,
2000-11-19, 01:41:00,VALID,914.275,VALID,0,VALID,99.9392,VALID,-0.0339617,VALID,20.3708,VALID,104,VALID,0,
2000-11-19, 01:42:00,VALID,914.255,VALID,0,VALID,99.943,VALID,-0.0169808,VALID,20.3708,VALID,104,VALID,0,
2000-11-19, 01:43:00,VALID,914.218,VALID,0,VALID,99.9392,VALID,-0.0169808,VALID,20.371,VALID,104,VALID,0,
2000-11-19, 01:44:00,VALID,914.196,VALID,0,VALID,99.943,VALID,0,VALID,20.3673,VALID,104,VALID,0,
2000-11-19, 01:45:00,VALID,914.174,VALID,0,VALID,99.9367,VALID,-0.0169808,VALID,20.3745,VALID,104,VALID,0,
2000-11-19, 01:46:00,VALID,914.158,VALID,0,VALID,99.9519,VALID,-0.0509425,VALID,20.3772,VALID,104,VALID,0,
2000-11-19, 01:47:00,VALID,914.135,VALID,0,VALID,99.9456,VALID,-0.0339617,VALID,20.3909,VALID,104,VALID,0,
2000-11-19, 01:48:00,VALID,914.126,VALID,0,VALID,99.9418,VALID,0,VALID,20.3872,VALID,104,VALID,0,
2000-11-19, 01:49:00,VALID,914.105,VALID,0,VALID,99.9519,VALID,0,VALID,20.4068,VALID,104,VALID,0,
2000-11-19, 01:50:00,VALID,914.091,VALID,0,VALID,99.9481,VALID,0,VALID,20.4128,VALID,104,VALID,0,
2000-11-19, 01:51:00,VALID,914.082,VALID,0,VALID,99.9418,VALID,-0.0339617,VALID,20.4001,VALID,124,VALID,0,
2000-11-19, 01:52:00,VALID,914.073,VALID,0,VALID,99.9341,VALID,-0.0509425,VALID,20.3815,VALID,127,VALID,0,
2000-11-19, 01:53:00,VALID,914.071,VALID,0,VALID,99.9303,VALID,-0.0339617,VALID,20.3748,VALID,130,VALID,0,
2000-11-19, 01:54:00,VALID,914.058,VALID,0,VALID,99.929,VALID,-0.0169808,VALID,20.3449,VALID,130,VALID,0,
2000-11-19, 01:55:00,VALID,914.058,VALID,0,VALID,99.9418,VALID,-0.0339617,VALID,20.3417,VALID,130,VALID,0,
2000-11-19, 01:56:00,VALID,914.049,VALID,0,VALID,99.9443,VALID,-0.0509425,VALID,20.3519,VALID,130,VALID,0,
2000-11-19, 01:57:00,VALID,914.033,VALID,0,VALID,99.943,VALID,-0.0509425,VALID,20.3387,VALID,130,VALID,0,
2000-11-19, 01:58:00,VALID,914.035,VALID,0,VALID,99.943,VALID,-0.0169808,VALID,20.3524,VALID,130,VALID,0,
2000-11-19, 01:59:00,VALID,914.029,VALID,0,VALID,99.943,VALID,-0.0339617,VALID,20.339,VALID,130,VALID,0,
2000-11-19, 02:00:00,VALID,914.036,VALID,0,VALID,99.9494,VALID,-0.0509425,VALID,20.3422,VALID,128,VALID,0,
2000-11-19, 02:01:00,VALID,914.034,VALID,0,VALID,99.9519,VALID,-0.0679233,VALID,20.3651,VALID,115,VALID,0,
2000-11-19, 02:02:00,VALID,914.038,VALID,0,VALID,99.9456,VALID,-0.0339617,VALID,20.3419,VALID,92,VALID,0,
2000-11-19, 02:03:00,VALID,914.059,VALID,0,VALID,99.9443,VALID,-0.0169808,VALID,20.3293,VALID,92,VALID,0,
2000-11-19, 02:04:00,VALID,914.063,VALID,0,VALID,99.9507,VALID,-0.0509425,VALID,20.3166,VALID,92,VALID,0,
2000-11-19, 02:05:00,VALID,914.062,VALID,0,VALID,99.9507,VALID,-0.0339617,VALID,20.3099,VALID,92,VALID,0,
2000-11-19, 02:06:00,VALID,914.067,VALID,0,VALID,99.9519,VALID,-0.0339617,VALID,20.3032,VALID,91,VALID,0,
2000-11-19, 02:07:00,VALID,914.069,VALID,0,VALID,99.9545,VALID,-0.0169808,VALID,20.3171,VALID,87,VALID,0,
2000-11-19, 02:08:00,VALID,914.073,VALID,0,VALID,99.9532,VALID,-0.0339617,VALID,20.2902,VALID,87,VALID,0,
2000-11-19, 02:09:00,VALID,914.081,VALID,0,VALID,99.9557,VALID,-0.0679233,VALID,20.3039,VALID,87,VALID,0,
2000-11-19, 02:10:00,VALID,914.072,VALID,0,VALID,99.9456,VALID,-0.0509425,VALID,20.2972,VALID,87,VALID,0,
2000-11-19, 02:11:00,VALID,914.065,VALID,0,VALID,99.9545,VALID,-0.0509425,VALID,20.287,VALID,87,VALID,0,
2000-11-19, 02:12:00,VALID,914.061,VALID,0,VALID,99.9647,VALID,-0.0339617,VALID,20.3069,VALID,87,VALID,0,
2000-11-19, 02:13:00,VALID,914.065,VALID,0,VALID,99.9621,VALID,-0.0339617,VALID,20.3034,VALID,87,VALID,0,
2000-11-19, 02:14:00,VALID,914.055,VALID,0,VALID,99.9735,VALID,-0.0339617,VALID,20.3191,VALID,89,VALID,0,
2000-11-19, 02:15:00,VALID,914.047,VALID,0,VALID,99.9659,VALID,-0.0509425,VALID,20.3422,VALID,93,VALID,0,
2000-11-19, 02:16:00,VALID,914.033,VALID,0,VALID,99.9797,VALID,0,VALID,20.371,VALID,93,VALID,0,
2000-11-19, 02:17:00,VALID,914.022,VALID,0,VALID,99.9735,VALID,0,VALID,20.3546,VALID,92,VALID,0,
2000-11-19, 02:18:00,VALID,914.028,VALID,0,VALID,99.9697,VALID,0,VALID,20.3546,VALID,92,VALID,0,
2000-11-19, 02:19:00,VALID,914.015,VALID,0,VALID,99.9723,VALID,0,VALID,20.339,VALID,92,VALID,0,
2000-11-19, 02:20:00,VALID,914.006,VALID,0,VALID,99.9647,VALID,-0.0169808,VALID,20.3479,VALID,92,VALID,0,
2000-11-19, 02:21:00,VALID,913.999,VALID,0,VALID,99.9786,VALID,0,VALID,20.3643,VALID,92,VALID,0,
2000-11-19, 02:22:00,VALID,913.999,VALID,0,VALID,99.9786,VALID,0,VALID,20.3775,VALID,96,VALID,0,
2000-11-19, 02:23:01,VALID,913.981,VALID,0,VALID,99.9837,VALID,-0.0169808,VALID,20.3812,VALID,118,VALID,0,
2000-11-19, 02:24:00,VALID,913.973,VALID,0,VALID,99.9723,VALID,0,VALID,20.3909,VALID,118,VALID,0,
2000-11-19, 02:25:00,VALID,913.954,VALID,0,VALID,99.972,VALID,-0.0169808,VALID,20.3613,VALID,118,VALID,0,
2000-11-19, 02:26:00,VALID,913.945,VALID,0,VALID,99.9634,VALID,0,VALID,20.3544,VALID,118,VALID,0,
2000-11-19, 02:27:00,VALID,913.93,VALID,0,VALID,99.9659,VALID,0,VALID,20.3482,VALID,118,VALID,0,
2000-11-19, 02:28:00,VALID,913.923,VALID,0,VALID,99.9634,VALID,-0.0169808,VALID,20.3352,VALID,118,VALID,0,
2000-11-19, 02:29:00,VALID,913.892,VALID,0,VALID,99.9697,VALID,0,VALID,20.3221,VALID,118,VALID,0,
2000-11-19, 02:30:00,VALID,913.872,VALID,0,VALID,99.9596,VALID,0,VALID,20.3223,VALID,118,VALID,0,
2000-11-19, 02:31:00,VALID,913.836,VALID,0,VALID,99.9774,VALID,0,VALID,20.3226,VALID,118,VALID,0,
2000-11-19, 02:32:00,VALID,913.82,VALID,0,VALID,99.9774,VALID,-0.0169808,VALID,20.3094,VALID,118,VALID,0,
2000-11-19, 02:33:01,VALID,913.793,VALID,0,VALID,99.9774,VALID,0.0169808,VALID,20.3158,VALID,118,VALID,0,
2000-11-19, 02:34:00,VALID,913.768,VALID,0,VALID,99.9735,VALID,0,VALID,20.3126,VALID,118,VALID,0,
2000-11-19, 02:35:01,VALID,913.76,VALID,0,VALID,99.9847,VALID,0,VALID,20.3131,VALID,118,VALID,0,
2000-11-19, 02:36:00,VALID,913.751,VALID,0,VALID,99.9873,VALID,0,VALID,20.3223,VALID,118,VALID,0,
2000-11-19, 02:37:01,VALID,913.736,VALID,0,VALID,99.9847,VALID,0.0169808,VALID,20.3228,VALID,118,VALID,0,
2000-11-19, 02:38:00,VALID,913.729,VALID,0,VALID,99.985,VALID,0.0169808,VALID,20.3323,VALID,118,VALID,0,
2000-11-19, 02:39:00,VALID,913.706,VALID,0,VALID,99.9908,VALID,0,VALID,20.3283,VALID,118,VALID,0,
2000-11-19, 02:40:00,VALID,913.698,VALID,0,VALID,99.985,VALID,-0.0339617,VALID,20.3255,VALID,118,VALID,0,
2000-11-19, 02:41:00,VALID,913.689,VALID,0,VALID,99.9906,VALID,0,VALID,20.3387,VALID,115,VALID,0,
2000-11-19, 02:42:00,VALID,913.686,VALID,0,VALID,99.9977,VALID,0,VALID,20.3514,VALID,107,VALID,0,
2000-11-19, 02:43:00,VALID,913.675,VALID,0,VALID,99.9809,VALID,0,VALID,20.3288,VALID,107,VALID,0,
2000-11-19, 02:44:01,VALID,913.655,VALID,0,VALID,99.9825,VALID,0,VALID,20.3124,VALID,95,VALID,0,
2000-11-19, 02:45:00,VALID,913.656,VALID,0,VALID,99.9797,VALID,0.0339617,VALID,20.3228,VALID,94,VALID,0,
2000-11-19, 02:46:01,VALID,913.657,VALID,0,VALID,99.9883,VALID,0,VALID,20.3091,VALID,90,VALID,0,
2000-11-19, 02:47:00,VALID,913.648,VALID,0,VALID,99.9786,VALID,0.0339617,VALID,20.3126,VALID,82,VALID,0,
2000-11-19, 02:48:00,VALID,913.664,VALID,0,VALID,99.9812,VALID,0,VALID,20.2865,VALID,82,VALID,0,
2000-11-19, 02:49:01,VALID,913.686,VALID,0,VALID,99.985,VALID,0.0169808,VALID,20.2706,VALID,94,VALID,0,
2000-11-19, 02:50:00,VALID,913.692,VALID,0,VALID,99.985,VALID,0.0169808,VALID,20.2671,VALID,93,VALID,0,
2000-11-19, 02:51:01,VALID,913.711,VALID,0,VALID,99.9886,VALID,0.0169808,VALID,20.2773,VALID,93,VALID,0,
2000-11-19, 02:52:00,VALID,913.723,VALID,0,VALID,99.9863,VALID,0.0169808,VALID,20.2997,VALID,78,VALID,0,
2000-11-19, 02:53:01,VALID,913.745,VALID,0,VALID,99.986,VALID,0,VALID,20.2865,VALID,103,VALID,0,
2000-11-19, 02:54:00,VALID,913.753,VALID,0,VALID,99.9863,VALID,0,VALID,20.2843,VALID,112,VALID,0,
2000-11-19, 02:55:00,VALID,913.754,VALID,0,VALID,99.9931,VALID,0,VALID,20.3029,VALID,103,VALID,0,
2000-11-19, 02:56:01,VALID,913.758,VALID,0,VALID,99.9812,VALID,0,VALID,20.3002,VALID,104,VALID,0,
2000-11-19, 02:57:00,VALID,913.768,VALID,0,VALID,99.9797,VALID,-0.0169808,VALID,20.2868,VALID,122,VALID,0,
2000-11-19, 02:58:00,VALID,913.78,VALID,0.2,VALID,99.9809,VALID,0,VALID,20.2738,VALID,120,VALID,0,
2000-11-19, 02:59:00,VALID,913.796,VALID,0,VALID,99.9921,VALID,0,VALID,20.2644,VALID,112,VALID,0,
2000-11-19, 03:00:00,VALID,913.806,VALID,0,VALID,99.9934,VALID,0,VALID,20.2746,VALID,104,VALID,0,
2000-11-19, 03:01:01,VALID,913.822,VALID,0,VALID,99.9924,VALID,-0.0169808,VALID,20.2932,VALID,103,VALID,0.344196,
2000-11-19, 03:02:00,VALID,913.837,VALID,0,VALID,99.9934,VALID,-0.0169808,VALID,20.2935,VALID,89,VALID,0.723307,
2000-11-19, 03:03:00,VALID,913.838,VALID,0,VALID,99.9934,VALID,-0.0169808,VALID,20.2905,VALID,85,VALID,0.754607,
2000-11-19, 03:04:00,VALID,913.842,VALID,0,VALID,99.986,VALID,0,VALID,20.2607,VALID,77,VALID,0.903372,
2000-11-19, 03:05:01,VALID,913.845,VALID,0,VALID,99.985,VALID,0,VALID,20.2351,VALID,94,VALID,0.906456,
2000-11-19, 03:06:01,VALID,913.831,VALID,0,VALID,99.985,VALID,0,VALID,20.2154,VALID,90,VALID,1.00134,
2000-11-19, 03:07:00,VALID,913.829,VALID,0,VALID,99.9845,VALID,0,VALID,20.2189,VALID,87,VALID,1.0599,
2000-11-19, 03:08:01,VALID,913.811,VALID,0,VALID,99.9954,VALID,0,VALID,20.1925,VALID,69,VALID,0.535442,
2000-11-19, 03:09:00,VALID,913.798,VALID,0,VALID,99.9954,VALID,0,VALID,20.2124,VALID,84,VALID,0.0439453,
2000-11-19, 03:10:01,VALID,913.766,VALID,0,VALID,99.9944,VALID,0,VALID,20.2224,VALID,97,VALID,0.429905,
2000-11-19, 03:11:00,VALID,913.738,VALID,0,VALID,99.9944,VALID,-0.0169808,VALID,20.2192,VALID,60,VALID,0.443793,
2000-11-19, 03:12:01,VALID,913.698,VALID,0,VALID,99.9934,VALID,-0.0169808,VALID,20.1868,VALID,58,VALID,0.428571,
2000-11-19, 03:13:00,VALID,913.678,VALID,0,VALID,99.9967,VALID,-0.0339617,VALID,20.1901,VALID,70,VALID,0.589433,
2000-11-19, 03:14:00,VALID,913.66,VALID,0,VALID,99.986,VALID,0,VALID,20.1804,VALID,52,VALID,0.769848,
2000-11-19, 03:15:00,VALID,913.667,VALID,0,VALID,99.999,VALID,0,VALID,20.1739,VALID,83,VALID,0.429888,
2000-11-19, 03:16:00,VALID,913.675,VALID,0,VALID,100,VALID,0,VALID,20.2162,VALID,96,VALID,0.670313,
2000-11-19, 03:17:01,VALID,913.675,VALID,0,VALID,99.999,VALID,0,VALID,20.2286,VALID,90,VALID,1.09122,
2000-11-19, 03:18:00,VALID,913.684,VALID,0,VALID,100,VALID,-0.0679233,VALID,20.2199,VALID,86,VALID,1.07332,
2000-11-19, 03:19:01,VALID,913.699,VALID,0,VALID,99.9969,VALID,-0.101885,VALID,20.1943,VALID,85,VALID,1.15705,
2000-11-19, 03:20:00,VALID,913.719,VALID,0,VALID,99.999,VALID,-0.101885,VALID,20.2008,VALID,87,VALID,1.19932,
2000-11-19, 03:21:00,VALID,913.725,VALID,0,VALID,99.9967,VALID,-0.0849042,VALID,20.1881,VALID,89,VALID,1.27981,
2000-11-19, 03:22:00,VALID,913.729,VALID,0,VALID,100,VALID,-0.101885,VALID,20.1849,VALID,85,VALID,1.29286,
2000-11-19, 03:23:00,VALID,913.733,VALID,0,VALID,99.9941,VALID,-0.101885,VALID,20.1819,VALID,89,VALID,1.35178,
2000-11-19, 03:24:01,VALID,913.731,VALID,0,VALID,100,VALID,-0.118866,VALID,20.1787,VALID,96,VALID,1.05529,
2000-11-19, 03:25:00,VALID,913.734,VALID,0,VALID,100,VALID,-0.101885,VALID,20.1951,VALID,88,VALID,1.06875,
2000-11-19, 03:26:00,VALID,913.757,VALID,0,VALID,99.9863,VALID,-0.101885,VALID,20.1787,VALID,98,VALID,0.745988,
2000-11-19, 03:27:00,VALID,913.775,VALID,0,VALID,99.9911,VALID,-0.101885,VALID,20.1822,VALID,100,VALID,0.708534,
2000-11-19, 03:28:00,VALID,913.784,VALID,0,VALID,99.9921,VALID,-0.101885,VALID,20.1919,VALID,94,VALID,0.218316,
2000-11-19, 03:29:01,VALID,913.792,VALID,0,VALID,99.988,VALID,-0.101885,VALID,20.1879,VALID,58,VALID,0.492188,
2000-11-19, 03:30:01,VALID,913.815,VALID,0,VALID,99.9954,VALID,-0.101885,VALID,20.2018,VALID,65,VALID,0.308388,
2000-11-19, 03:31:00,VALID,913.807,VALID,0,VALID,99.9896,VALID,-0.0849042,VALID,20.1978,VALID,71,VALID,0.310033,
2000-11-19, 03:32:00,VALID,913.8,VALID,0.2,VALID,99.9906,VALID,-0.0849042,VALID,20.1916,VALID,78,VALID,0.31989,
2000-11-19, 03:33:00,VALID,913.806,VALID,0,VALID,99.9921,VALID,0.0679233,VALID,20.2119,VALID,85,VALID,0.621199,
2000-11-19, 03:34:00,VALID,913.812,VALID,0,VALID,99.9847,VALID,0.101885,VALID,20.1759,VALID,41,VALID,0.666295,
2000-11-19, 03:35:00,VALID,913.813,VALID,0,VALID,99.9921,VALID,0.101885,VALID,20.1654,VALID,78,VALID,0.958767,
2000-11-19, 03:36:00,VALID,913.821,VALID,0,VALID,99.9863,VALID,0.101885,VALID,20.156,VALID,85,VALID,0.808494,
2000-11-19, 03:37:00,VALID,913.821,VALID,0,VALID,99.9896,VALID,0.101885,VALID,20.1759,VALID,95,VALID,0.815378,
2000-11-19, 03:38:00,VALID,913.814,VALID,0,VALID,99.9967,VALID,0.101885,VALID,20.1953,VALID,99,VALID,0.451686,
2000-11-19, 03:39:01,VALID,913.813,VALID,0,VALID,99.9957,VALID,0.101885,VALID,20.2082,VALID,100,VALID,0.0227679,
2000-11-19, 03:40:00,VALID,913.808,VALID,0,VALID,99.9898,VALID,0.101885,VALID,20.2045,VALID,82,VALID,0,
2000-11-19, 03:41:01,VALID,913.803,VALID,0,VALID,99.9799,VALID,0.101885,VALID,20.1886,VALID,76,VALID,0.667302,
2000-11-19, 03:42:00,VALID,913.804,VALID,0,VALID,99.9799,VALID,0.101885,VALID,20.1826,VALID,94,VALID,1.11719,
2000-11-19, 03:43:01,VALID,913.793,VALID,0.2,VALID,99.9799,VALID,0.118866,VALID,20.1692,VALID,39,VALID,0.666233,